This is the latest recevied weather packets stored in our database for station/object PP5MGT-13. If no packets are shown the sender has not sent any weather packets the latest 10 day(s).
| Time | Temp. | Humidity | Pressure | Rain* | Wind** | Luminosity | Snow |
|---|---|---|---|---|---|---|---|
| 1777587316 | 22.22° C | 79% | 1018.2 hPa | - | - | - | - |
| 1777585513 | 22.78° C | 77% | 1017.5 hPa | - | - | - | - |
| 1777584613 | 22.78° C | 77% | 1017.5 hPa | - | - | - | - |
| 1777579205 | 25° C | 63% | 1016.6 hPa | - | - | - | - |
| 1777578302 | 25° C | 64% | 1016.6 hPa | - | - | - | - |
| 1777573794 | 25° C | 61% | 1016.6 hPa | - | - | - | - |
| 1777571992 | 25.56° C | 60% | 1016.7 hPa | - | - | - | - |
| 1777567484 | 25° C | 63% | 1017.1 hPa | - | - | - | - |
| 1777564779 | 24.44° C | 66% | 1017.7 hPa | - | - | - | - |
| 1777563878 | 23.89° C | 67% | 1017.8 hPa | - | - | - | - |
| 1777562977 | 23.89° C | 68% | 1017.9 hPa | - | - | - | - |
| 1777562076 | 23.89° C | 68% | 1017.9 hPa | - | - | - | - |
| 1777561175 | 23.33° C | 70% | 1018.4 hPa | - | - | - | - |
| 1777560274 | 23.33° C | 70% | 1018.6 hPa | - | - | - | - |
| 1777557570 | 21.67° C | 79% | 1018.9 hPa | - | - | - | - |
| 1777555765 | 21.67° C | 82% | 1018.9 hPa | - | - | - | - |
| 1777553961 | 20° C | 92% | 1018.7 hPa | - | - | - | - |
| 1777552159 | 19.44° C | 97% | 1018.6 hPa | - | - | - | - |
| 1777548554 | 17.78° C | 100% | 1017.9 hPa | - | - | - | - |
| 1777545850 | 17.22° C | 99% | 1017.3 hPa | - | - | - | - |
| 1777544949 | 17.22° C | 99% | 1017.2 hPa | - | - | - | - |
| 1777543147 | 17.22° C | 99% | 1016.5 hPa | - | - | - | - |
| 1777542245 | 17.22° C | 99% | 1016.4 hPa | - | - | - | - |
| 1777541344 | 17.22° C | 98% | 1016.3 hPa | - | - | - | - |
| 1777535936 | 18.33° C | 98% | 1015.2 hPa | - | - | - | - |
* Rain since midnight (hover to see other rain measurements)
** Current wind speed in m/s (hover to see current wind gust speed)